Погода в Старой Андреевке

Россия / Пензенская область     52°50′19″N   46°38′36″E
темп.,
°C
ветер,
м/с
пор.,
м/с
влажн.,
%
обл.,
%
осадки,
мм/ч
давл.,
гПа
погр.,
м
6 мая, чт
чт600:00+6з39823 0.0 1016154
03:00+5зюз36845 0.0 1017102
06:00+7юз36795 0.0 1018173
09:00+13юз45585 0.0 1018651
12:00+16ююз564930 0.0 10181622
15:00+17ююз564516 0.0 10171702
18:00+14ю4856100 0.0 1017314
21:00+11ю3661100 0.0 101796
7 мая, пт
пт700:00+9ю3565100 0.0 101786
03:00+9ююв3868100 0.0 1017158
06:00+10ююв51270100 0.0 1017318
09:00+13ю61062100 0.0 1017508
12:00+16ю7104587 0.0 10161179
15:00+17ююз6944100 0.0 10151985
18:00+12сз6784100 1.3 1017307
21:00+11в1191100 4.4 101867
8 мая, сб
сб800:00+10зюз1190100 0.2 101811
03:00+8ююв11925 0.2 101810
06:00+10ююв12894 0.0 1018104
09:00+15ююв56680 0.0 1017762
12:00+18ююз68505 0.0 10161988
15:00+19ююз6844100 0.0 10152153
18:00+17ю375934 0.0 1014221
21:00+14ююв4106495 0.0 1014211
9 мая, вс
вс900:00+14ююв5136096 0.0 1013364
03:00+14ююв71657100 0.0 1013500
06:00+13ююв51267100 0.0 1013367
09:00+15ю4865100 0.3 1013495
12:00+18ю5856100 0.0 1014901
15:00+20ю3852100 0.0 10142126
18:00+17ссз1267100 0.1 101425
21:00+12ссв61092100 0.6 1016159
10 мая, пн
пн1000:00+12св5993100 0.0 1016236
03:00+11св51095100 0.0 1018247
06:00+10св51093100 0.0 1020272
09:00+15св5575100 0.0 1021530
12:00+18св556498 0.0 10221083
15:00+19св776299 0.0 1022968
18:00+16св697185 0.0 1023548
21:00+12св6138426 0.0 1025307